Starlink 32815

operational
NORAD ID: 62956 Int'l Des: 2025-029 Owner: SPXS Country: US Constellation: starlink
LEOCIRCULAR

About Starlink 32815

Description loading...

Live Position

Loading 3D Globe...

Upcoming Passes

Altitude History

Altitude vs Time

uPlot chart will show altitude changes over time

Two-Line Element Set

1 62956U 25029J 25354.09567215 .00014540 00000-0 50200-3 0 9994
2 62956 53.1595 239.8772 0000822 80.4921 279.6172 15.30204694 49171
Epoch: Dec 20, 2025 • Age: 6 hours

Current Status

Altitude 476.1 km
Velocity 7.63 km/s
Sub-Earth Point 27.24°N, 41.24°E
Launch Date Feb 11, 2025
Age 0.8 years
Type internet

Technical Details

Classification Payload
Mass 730.00 kg
Dry Mass 700.00 kg
Total Mass 730.00 kg
Length 0.30 m
Diameter 4.10 m
Span 29.00 m
Shape Box + pan
Manufacturer SPXS
Bus Type Starlink V2M
Phase Status In Orbit
Owner/State SPXS/US

Large Constellations

Loading constellations...